Погода в Пскове

Погода в Пскове : погода сейчас, прогноз погоды и архив. Всё, что Вы хотите узнать о погоде в Пскове!

Хотите узнать прогноз погоды в Пскове? Тогда Вам сюда: Погода в Пскове

Поиск расширенной информации на нашем сайте:

Другие новости

Новости СМИ2

Главная страница сайта

Новости сайта

03.07.2017

Напоминаем, что на нашем специализированном сайте Метеоцентр.Азия вы можете получить высокодетализированные автоматические прогнозы погоды по пунктам России, СНГ и мира в авиационном формате (включающие направление и скорость ветра, видимость, явления погоды, количество и форму облачности, нижнюю и верхнюю границу облачности).


Погода в Пскове - сегодня

Время (UTC), дата Ветер
(°,м/с) 
Видим.   Явления Облачность Т
(°С)
Тd
(°С)
f(%) Тe
(°С)
Pmin
(гПа)
dP
(гПа)
Po
(мм)
O2
(г/м3)
Тmin Tmax R s Состояние
почвы
21 18.09.17 тихо ()   10 км  слаб. морось  10/10 600 м 
[St]
+11.6 +11 96 +14  993.4  -0.1  741  284           
00 19.09.17 280 (З) 10 км  слаб. морось  10/10 600 м 
[St]
+10.8 +10.2 96 +12  995.5  2.2  743  286           
03 19.09.17 290 (З) 5-11{13}  10 км  слаб. морось  10/10 600 м 
[St]
+10.1 +9.2 94 +9  999.5  3.9  746  288  +10.1    0.0     
06 19.09.17 270 (З) 4{12}  20000 м  {морось}  10/10 600 м 
[St]
+9.4 +8.1 92 +8  1004.2  4.6  749  290  +9.4    0.0    мокрая 
09 19.09.17 260 (З) 20000 м    5/5 600 м 
[Cu Sc]
+13 +7.1 67 +13  1007.5  3.4  752  288           
12 19.09.17 250 (З) 20000 м    9/9 600 м 
[Sc]
+13 +8.1 72 +13  1010.1  2.6  754  288           
15 19.09.17 230 (ЮЗ) 20000 м  {морось}  10/10 600 м 
[St]
+11.5 +10.5 94 +15  1011.9  1.8  755  290      0.4     
18 19.09.17 тихо ()   20000 м  {морось}  6/6 600 м 
[Sc]
+9.9 +9 94 +10  1013.4  1.4  756  292    +13.9  0.4     
21 19.09.17 220 (ЮЗ) 20000 м    9/9 600 м 
[Sc]
+9.9 +8.9 93 +11  1015.1  1.7  757  293           
00 20.09.17 200 (Ю) 20000 м    4/4 600 м 
[Sc]
+8.3 +7.6 95 +9  1016.4  1.2  758  295           
03 20.09.17 тихо ()   20000 м    8/8 600 м 
[Sc]
+8.1 +7.6 97 +8  1017.6  1.2  759  296  +7.9         
06 20.09.17 190 (Ю) 20000 м    10/10 600 м 
[Sc]
+8.9 +8.4 97 +10  1019.6  761  295  +7.9        влажная 
09 20.09.17 210 (ЮЗ) 20000 м    10/10 600 м кучево-дожд. 
[Cb cap]
+11.4 +9.4 87 +13  1020.9  1.4  762  293           
12 20.09.17 180 (Ю) 20000 м    8/5 600 м средняя, верхняя 
[Cu med, cong|Ac lent|Ci fib]
+16.5 +10.8 69 +20  1021.2  0.4  762  288           
15 20.09.17 160 (Ю) 20000 м    9/5 600 м кучево-дожд., средняя, верхняя 
[Cb cap|Ac lent|Ci fib]
+15.1 +9.5 69 +16  1021.6  0.4  762  289           
18 20.09.17 140 (ЮВ) 20000 м    10/10 600 м 
[Sc diur, vesp]
+11.2 +9.5 89 +12  1022.8  1.1  763  294    +16.7       
21 20.09.17 070 (В) 20000 м    10/10 600 м 
[Sc]
+9.9 +9 94 +11  1023.9  1.1  764  295           
00 21.09.17 070 (В) 20000 м    8/5 600 м средняя 
[Sc|Ac trans]
+10.7 +9.3 91 +11  1024.4  1.1  764  295           
03 21.09.17 060 (СВ) 20000 м    10/10 600 м 
[Sc]
+10.6 +8.9 89 +12  1024.3  0.1  764  295  +9.8         
06 21.09.17 090 (В) 20000 м    8/6 600 м средняя 
[Sc diur, vesp|Ac trans]
+11.5 +9.5 88 +11  1024.4  0.1  764  294  +9.8        влажная 
09 21.09.17 100 (В) 20000 м    9/8 600 м средняя 
[Sc diur, vesp|Ac trans]
+16 +10.3 69 +17  1024.6  0.1  764  289           
12 21.09.17 090 (В) 5{11}  20000 м    9/5 600 м кучево-дожд. 
[Cb calv]
+17.9 +8.3 53 +18  1022.3  -1.2  764  287           
15 21.09.17 080 (В) 5{12}  20000 м    9/8 600 м кучево-дожд., средняя 
[Cb cap|Ac As]
+16.3 +9.4 64 +16  1023.1  -0.2  763  289           
18 21.09.17 080 (В) 4000 м  слаб. ливневой дождь  10/10 600 м кучево-дожд. 
[Cb cap]
+13.2 +10.8 85 +15  1023.5  0.3  764  292    +18.1     
21 21.09.17 090 (В) 10 км  {ливн. осадки}  10/10 600 м кучево-дожд. 
[Cb cap]
+12.7 +9.9 83 +13  1023.7  0.2  764  292           
Время (UTC), дата Ветер
(°,м/с) 
Видим.   Явления Облачность Т
(°С)
Тd
(°С)
f(%) Тe
(°С)
Pmin
(гПа)
dP
(гПа)
Po
(мм)
O2
(г/м3)
Тmin Tmax R s Состояние
почвы

Для получения пояснительной информации подведите курсор к названию столбца.

ПОГОДА в Пскове - архив

Всё, что Вы хотите узнать о погоде в Пскове - удобно и подробно!

Выберите нужную дату (начиная с 1 января 2015* года) и нажмите кнопку "Найти".
Будут отображены архивные сводки погоды по пункту Псков, начиная с указанной даты.


Отображать данные в формате CSV (для использования в таблицах Excel)


Внимание! Наш архив погоды предназначен исключительно для личного некоммерческого использования в познавательных целях. Если Вам необходимы официальные справки о состоянии погоды (для производственных, юридических, коммерческих и т.п. целей), обращайтесь в органы Росгидромета.

*Примечание: данная дата относится к архиву по метеостанциям СССР (Россия, СНГ, Балтия).
Архив по метеостанциям Зарубежной Европы и Азии (кроме Китая) хранится 10 дней, по другим регионам земного шара (Китай, Африка, Америка, Австралия, Океания) - 1 день.

Псков - район местоположения метеостанции


Название, широта, долгота, высота метеостанции:
Псков (город) 57.8°ш. 28.5°д. 44 м над ур. моря [Российская Федерация]

Дополнительная информация

В oтличие oт бoльшинства пoгoдных сайтoв мы публикуем пoдрoбную метеoинфoрмацию в детальнoм прoфессиoнальнoм фoрмате.

Характеристики температуры и влажнoсти вoздуха измеряются на высoте 2 м в тени вдали oт зданий и деревьев.
Скoрoсть ветра измеряется на высoте 10 м (на урoвне рoста челoвека скoрoсть ветра ниже в 1.5-2 раза). Если метеoстанция нахoдится в гoрoде или в лесу, тo скoрoсть ветра занижена на 2-4 м/с пo сравнению с oткрытым местoм. Скoрoсть ветра над акватoриями крупных рек и oзёр, а также на вершинах хoлмoв на 2-5 м/с выше, чем в oбычных услoвиях.
Атмoсфернoе давление в разных тoчках местнoсти мoжет значительнo oтличаться oт давления на метеoстанции, в зависимoсти oт услoвий рельефа (при пoдъёме на 10 м давление пoнижается примернo на 1 мм рт.ст.).